Home   Weather   Basseterre   Past weeks

Flag for Saint Kitts and Nevis Past Weather in Basseterre, Saint Kitts and Nevis — Yesterday and Last 2 Weeks

Now
75 °F

Passing clouds.


Feels Like: 77 °F
Forecast: 72 / 79 °F
Wind: 7 mph from North

Location: Golden Rock

Current Time: Jan 18, 2017 at 8:40:16 pm

Latest Report: Jan 18, 2017 at 8:00 pm


Visibility: N/A

Pressure: 30.01 "Hg

Humidity: 74%

Dew Point: 66 °F

Location of BasseterreLocation

Past Weather in Basseterre — Graph

°F

Basseterre Temperature Yesterday

Maximum temperature yesterday: 82 °F (at 10:00 am)
Minimum temperature yesterday: 75 °F (at 6:00 am)
Average temperature yesterday: 79 °F

High & Low Weather Summary for the Past Weeks

 TemperatureHumidityPressure
High84 °F (Jan 5, 1:00 pm)100% (Jan 11, 9:00 pm)30.12 "Hg (Jan 11, 9:00 pm)
Low70 °F (Jan 11, 9:00 pm)48% (Jan 12, 10:00 am)29.92 "Hg (Jan 10, 2:00 pm)
Average79 °F71%30.01 "Hg
* Reported Jan 3 7:00 pm — Jan 18 7:00 pm, Basseterre, Weather by CustomWeather, © 2017

Note: Actual official high and low records may vary slightly from our data, if they occured in-between our weather recording intervals... More about our weather records

Advertising

Basseterre Weather History for the Previous 24 Hours

Scroll right to see more
 ConditionsComfort  
Time TempWeatherWind HumidityBarometerVisibility
7:00 pm
Wed, Jan 18
75 °FPassing clouds.7 mph74%30.01 "HgN/A
6:00 pm77 °FPassing clouds.12 mph69%29.98 "HgN/A
5:00 pm77 °FPassing clouds.10 mph65%29.98 "HgN/A
4:00 pm79 °FPartly sunny.13 mph61%29.98 "HgN/A
3:00 pm81 °FPassing clouds.13 mph62%29.98 "HgN/A
2:00 pm81 °FPassing clouds.15 mph58%29.98 "HgN/A
1:00 pm82 °FPassing clouds.16 mph55%30.01 "HgN/A
12:00 pm82 °FScattered clouds.18 mph58%30.04 "HgN/A
11:00 am81 °FPassing clouds.18 mph62%30.07 "HgN/A
10:00 am81 °FScattered clouds.20 mph66%30.07 "HgN/A
9:00 am77 °FPartly sunny.14 mph69%30.07 "HgN/A
8:00 am79 °FScattered clouds.16 mph70%30.04 "HgN/A
7:00 am75 °FScattered clouds.12 mph74%30.04 "HgN/A
6:00 am75 °FPassing clouds.13 mph74%30.01 "HgN/A
9:00 pm
Tue, Jan 17
77 °FPassing clouds.15 mph74%30.07 "HgN/A
8:00 pm77 °FPassing clouds.12 mph79%30.04 "HgN/A
Weather by CustomWeather, © 2017

See weather overviewHow to use our weather pages